Location: Peebles
(55.6412°N, 3.1714°W)
Time: 14:19:22
(UTC+01:00)

FENGYUN 1C DEB - Pass Details

Date: 10 July 2022
Orbit: 733 x 848 km, 99.0° (Epoch: 16 August)

Event Time Altitude Azimuth Distance (km) Brightness Sun altitude
Rises 02:52:13 0° 91° (E) 3,198 ? -9.6°
Reaches altitude 10° 02:56:09 10° 60° (ENE) 2,261 ? -9.4°
Maximum altitude 02:57:45 12° 41° (NE) 2,151 ? -9.3°
Drops below altitude 10° 02:59:21 10° 22° (NNE) 2,255 ? -9.2°
Sets 03:03:14 0° 350° (N) 3,177 ? -9.0°
